Weather in Bafra

Turkey     41°33′26″N   35°54′20″E
temp.,
°C
wind,
m/s
gust,
m/s
humid.,
%
clouds,
%
prec.,
mm/h
press.,
hPa
HPBL,
m
16 may, sun
sun1600:00+14sse225773 0.0 101014
03:00+13ssw22562 0.0 100814
06:00+14s22635 0.0 100613
09:00+19e225499 0.0 1005282
12:00+21n3258100 0.4 1005574
15:00+19nw6767100 0.4 1005694
18:00+16nw4887100 0.6 1005424
21:00+14wsw33890 1.3 100548
17 may, mon
mon1700:00+14s338396 0.0 100532
03:00+12nw2394100 0.1 100873
06:00+14s1296100 0.6 100982
09:00+16sse2385100 0.9 1010339
12:00+19ese557399 0.1 1010773
15:00+17e3379100 1.1 1011584
18:00+17e3476100 0.5 1011420
21:00+13se338821 0.6 101343
18 may, tue
tue1800:00+12s33865 0.0 101128
03:00+12s22854 0.0 101016
06:00+13sse22835 0.0 101031
09:00+21sse136364 0.0 1010355
12:00+24e13525 0.0 1010822
15:00+23ene446279 0.0 1009489
18:00+18nw48765 0.1 1011342
21:00+15wnw4897100 0.9 1014346
19 may, wed
wed1900:00+14w359748 2.3 1014222
03:00+13sw229026 2.9 101550
06:00+13sse22840 0.0 101524
09:00+17e337619 0.0 1016484
12:00+19e55675 0.0 1017583
15:00+19e567011 0.1 1017674
18:00+17e458455 0.0 1018408
21:00+14ese23961 0.0 101866
20 may, thu
thu2000:00+13sse22920 0.0 101731
03:00+13se22910 0.0 101631
06:00+13se23890 0.0 101576
09:00+19e45761 0.0 1014402
12:00+21e66752 0.0 1012389
15:00+20e68771 0.0 1011334
18:00+19ese68820 0.0 1011248
21:00+16ese46891 0.0 101092